#timestamp,LO_Frequency,Hit,StdDev 
1502974815.8,286047000.0,N,0.6
1502974835.7,286046999.9,N,0.6
1502974855.5,286047000.9,N,0.6
1502974875.3,286047000.2,N,0.6
1502974895.2,286047002.8,Y,0.0
1502974915.0,286046999.9,P,0.2
1502974915.9,286046999.9,N,0.2
1502974935.8,286046999.7,N,0.3
1502974955.6,286047000.1,N,0.2
1502974975.4,286047000.3,N,0.2
1502974995.3,286047000.0,N,0.2
1502975015.1,286047001.1,Y,0.0
1502975016.0,286047001.1,P,0.5
1502975035.8,286047000.3,N,0.5
1502975055.7,286047000.3,N,0.4
1502975075.5,286047000.5,N,0.4
1502975095.3,286047000.4,N,0.3
1502975115.2,286047000.9,N,0.3
1502975135.9,286046999.8,N,0.4
1502975155.7,286046999.9,N,0.4
1502975175.6,286047000.4,N,0.4
1502975195.4,286047002.7,Y,0.0
1502975215.2,286046999.7,P,0.3
1502975235.1,286047000.8,N,0.5
1502975236.0,286047000.8,N,0.5
1502975255.8,286047000.4,N,0.4
1502975275.6,286046999.8,N,0.4
1502975295.5,286047002.7,Y,0.0
1502975315.3,286047000.3,P,0.0
1502975335.1,286046999.7,P,0.3
1502975355.9,286046999.8,N,0.3
1502975375.7,286047000.1,N,0.3
1502975395.5,286047000.0,N,0.2
1502975415.4,286047000.3,N,0.2
1502975435.2,286047002.8,Y,0.0
1502975455.0,286047002.4,P,1.2
1502975456.0,286047002.4,N,1.1
1502975475.8,286047002.4,N,1.0
1502975495.6,286046999.7,N,1.2
1502975515.5,286047000.2,N,1.2
1502975535.3,286047000.1,N,1.2
1502975555.1,286047000.1,N,1.2
1502975575.9,286047000.2,N,1.1
1502975595.7,286046999.7,N,1.1
1502975615.5,286047000.2,N,1.1
1502975635.4,286047002.6,N,1.2
1502975655.2,286047002.5,N,1.2
1502975675.0,286047002.3,N,1.2
1502975675.9,286047002.3,N,1.2
1502975695.8,286047002.8,N,1.2
1502975715.6,286047000.9,N,1.2
1502975735.4,286047001.1,N,1.2
1502975755.3,286047000.8,N,1.1
1502975775.1,286047000.7,N,1.1
1502975776.0,286047000.7,N,1.1
1502975795.8,286047000.2,N,1.1
1502975815.7,286047000.3,N,1.1
1502975835.5,286047002.4,N,1.1
1502975855.3,286047002.6,N,1.1
1502975875.2,286047000.1,N,1.1
1502975895.9,286046999.8,N,1.1
1502975915.7,286046999.9,N,1.1
1502975935.6,286047000.6,N,1.1
1502975955.4,286047000.4,N,1.1
1502975975.2,286046998.5,N,1.2
1502975995.1,286046998.2,N,1.2
1502975996.0,286046998.2,N,1.3
1502976015.8,286046998.4,N,1.3
1502976035.6,286046998.9,N,1.3
1502976055.5,286046996.5,N,1.5
1502976075.3,286046996.7,N,1.6
1502976095.1,286046997.8,N,1.7
1502976115.9,286046997.3,N,1.8
1502976135.7,286046996.7,N,1.9
1502976155.5,286046997.8,N,1.9
1502976175.4,286046997.4,N,1.9
1502976195.2,286046997.4,N,1.9
1502976215.0,286046998.0,N,1.8
1502976215.9,286046998.0,N,1.8
1502976235.8,286046996.8,N,1.7
1502976255.6,286046997.2,N,1.7
1502976275.4,286046995.0,N,1.8
1502976295.3,286046996.7,N,1.8
1502976315.1,286046994.9,N,1.9
1502976335.9,286046996.0,N,1.9
1502976355.7,286046995.9,N,1.9
1502976375.5,286046995.7,N,1.9
1502976395.4,286046995.6,N,1.8
1502976415.2,286046995.9,N,1.5
1502976435.0,286046993.9,Y,0.0
1502976435.9,286046993.9,P,1.8
1502976455.8,286046997.5,N,1.7
1502976475.6,286046997.2,N,1.5
1502976495.4,286046995.0,Y,0.0
1502976515.3,286046999.0,P,1.2
1502976535.1,286046997.0,N,1.1
1502976555.8,286046997.2,N,0.9
1502976575.7,286046997.1,Y,0.0
1502976595.5,286046998.1,P,0.3
1502976615.3,286046998.8,P,0.6
1502976635.2,286046998.5,N,0.5
1502976655.0,286047000.9,N,1.2
1502976655.9,286047000.9,N,1.3
1502976675.7,286046998.4,N,1.3
1502976695.6,286047001.0,N,1.4
1502976715.4,286047000.6,N,1.3
1502976735.2,286046998.2,N,1.3
1502976755.1,286047000.8,N,1.3
1502976756.0,286047000.8,N,1.3
1502976775.8,286046998.6,N,1.3
1502976795.7,286047000.7,N,1.3
1502976815.5,286047000.2,N,1.3
1502976835.3,286047001.1,N,1.3
1502976855.2,286046998.9,N,1.3
1502976875.9,286046998.9,N,1.2
1502976895.7,286046999.6,N,1.2
1502976915.6,286046999.2,N,1.2
1502976935.4,286046999.4,N,1.1
1502976955.2,286046999.2,N,1.1
1502976975.1,286046999.2,N,1.1
1502976976.0,286046999.2,N,1.1
1502976995.8,286046996.7,Y,0.0
1502977015.6,286046996.5,P,1.5
1502977035.5,286046999.6,N,1.4
1502977055.3,286046999.0,N,1.3
1502977075.1,286046999.1,N,1.1
1502977095.9,286046999.0,N,1.1
1502977115.7,286046999.1,N,1.0
1502977135.5,286046999.1,N,0.9
1502977155.4,286046996.6,Y,0.0
1502977175.2,286046999.4,P,0.3
1502977195.0,286046998.6,P,0.3
1502977195.9,286046998.6,P,0.3
1502977215.8,286046998.8,Y,0.0
1502977235.6,286047000.6,P,0.9
1502977255.4,286047001.2,N,1.0
1502977275.3,286047001.2,N,1.0
1502977295.1,286046998.7,N,1.1
1502977315.8,286046999.4,N,1.0
1502977335.7,286046998.4,N,1.1
1502977355.5,286046998.1,N,1.2
1502977375.3,286046998.3,N,1.2
1502977395.2,286046998.2,N,1.2
1502977415.0,286046998.2,N,1.2
1502977415.9,286046998.2,N,1.2
1502977435.7,286046998.3,N,1.1
1502977455.6,286047000.9,N,1.2
1502977475.4,286047000.6,N,1.2
1502977495.2,286047000.9,N,1.2
1502977515.1,286047000.5,N,1.2
1502977516.0,286047000.5,N,1.2
1502977535.8,286046998.2,N,1.2
1502977555.6,286047001.0,N,1.2
1502977575.5,286047000.9,N,1.2
1502977595.3,286047000.5,N,1.2
1502977615.1,286047001.2,N,1.2
1502977635.9,286047000.6,N,1.2
1502977655.7,286047000.8,N,1.2
1502977675.6,286047001.2,N,1.2
1502977695.4,286047000.8,N,1.2
1502977715.2,286047000.4,N,1.2
1502977735.1,286046999.7,N,1.2
1502977736.0,286046999.7,N,1.2
1502977755.8,286047000.4,N,1.1
1502977775.6,286046999.9,N,1.1
1502977795.5,286047000.5,N,1.1
1502977815.3,286047001.7,N,1.1
1502977835.1,286047001.9,N,1.2
1502977855.9,286047001.3,N,1.2
1502977875.7,286047002.0,N,1.2
1502977895.5,286047001.4,N,1.2
1502977915.4,286047001.9,N,1.1
1502977935.2,286047002.5,N,1.1
1502977955.0,286047002.6,N,1.1
1502977955.9,286047002.6,N,1.0
1502977975.8,286047002.0,N,0.9
1502977995.6,286047002.0,N,1.0
1502978015.4,286047001.9,N,1.0
1502978035.3,286047001.5,N,1.0
1502978055.1,286047001.4,N,1.0
1502978056.0,286047001.4,N,1.0
1502978075.8,286047001.6,N,0.8
1502978095.7,286047004.4,Y,0.0
1502978115.5,286047001.6,P,0.2
1502978135.3,286047001.4,P,0.1
1502978155.2,286047001.5,P,0.1
1502978175.0,286047003.9,Y,0.0
1502978175.9,286047003.9,P,1.2
1502978195.8,286047000.2,N,1.5
1502978215.6,286047002.3,N,1.3
1502978235.4,286047002.8,N,1.3
1502978255.3,286047002.4,N,1.1
1502978275.1,286047000.2,N,1.3
1502978276.0,286047000.2,N,1.3
1502978295.8,286042519.6,Y,0.0
1502978315.7,286047001.1,P,0.3
1502978335.5,286047000.3,N,0.6
1502978355.3,286047000.2,N,0.6
1502978375.2,286047000.0,N,0.6
1502978395.9,286047002.7,Y,0.0
